����,���ϕ���(m/s),���ϕ���,�ő�u�ԕ���(m/s),�ő啗��������,�C��(��),���x(%),10���Ԉړ��ώZ�J��(mm),1���Ԉړ��ώZ�J��(mm),���J��(mm),�݌v�J��(mm),����(���ώZ)(MJ/m2),����(���ώZ)(min),���n�C��(hPa),�C�ʋC��(hPa)
2020-09-28T00:00:00+09:00,2.3,�k�k��,4.2,�k�k��,17.4,85.2,0,0,0.5,0.5,15.85,355,1002.1,1015.8
2020-09-28T00:01:00+09:00,2.5,�k�k��,4.2,�k�k��,17.4,85.3,0,0,0,0.5,0,0,1002.1,1015.8
2020-09-28T00:02:00+09:00,2.5,�k�k��,3.5,�k��,17.5,85.3,0,0,0,0.5,0,0,1002.1,1015.8
2020-09-28T00:03:00+09:00,2.5,�k�k��,3.5,�k��,17.3,84.7,0,0,0,0.5,0,0,1002.1,1015.8
2020-09-28T00:04:00+09:00,2.4,�k�k��,3.5,�k��,17.2,84.7,0,0,0,0.5,0,0,1002.1,1015.8
2020-09-28T00:05:00+09:00,2.3,�k�k��,3.5,�k��,17.3,85,0,0,0,0.5,0,0,1002.1,1015.8
2020-09-28T00:06:00+09:00,2.2,�k�k��,3.5,�k��,17.3,85.3,0,0,0,0.5,0,0,1002.1,1015.8
2020-09-28T00:07:00+09:00,2.1,�k,3.5,�k��,17.1,85.2,0,0,0,0.5,0,0,1002.1,1015.8
2020-09-28T00:08:00+09:00,2,�k,3.5,�k��,17.1,85.6,0,0,0,0.5,0,0,1002.1,1015.8
2020-09-28T00:09:00+09:00,1.9,�k,3.4,�k�k��,17.1,85.7,0,0,0,0.5,0,0,1002.1,1015.8
2020-09-28T00:10:00+09:00,1.7,�k�k��,3.4,�k�k��,17.1,86.1,0,0,0,0.5,0,0,1002.1,1015.8
2020-09-28T00:11:00+09:00,1.6,�k�k��,3.1,�k�k��,17.1,85.9,0,0,0,0.5,0,0,1002,1015.7
2020-09-28T00:12:00+09:00,1.5,�k�k��,3.1,�k�k��,17.2,85.9,0,0,0,0.5,0,0,1002.1,1015.8
2020-09-28T00:13:00+09:00,1.5,�k�k��,2.9,���k��,17.1,85.7,0,0,0,0.5,0,0,1002.1,1015.8
2020-09-28T00:14:00+09:00,1.5,�k�k��,2.9,���k��,17,85.6,0,0,0,0.5,0,0,1002.1,1015.9
2020-09-28T00:15:00+09:00,1.5,�k�k��,2.9,���k��,17.1,86,0,0,0,0.5,0,0,1002.1,1015.8
2020-09-28T00:16:00+09:00,1.5,�k�k��,2.8,�k��,17.2,86.4,0,0,0,0.5,0,0,1002,1015.7
2020-09-28T00:17:00+09:00,1.5,�k�k��,2.8,�k��,17.2,86.4,0,0,0,0.5,0,0,1002,1015.7
2020-09-28T00:18:00+09:00,1.6,�k,3.1,�k�k��,17.2,86.3,0,0,0,0.5,0,0,1002,1015.7
2020-09-28T00:19:00+09:00,1.7,�k,3.4,�k�k��,17.2,86,0,0,0,0.5,0,0,1002,1015.7
2020-09-28T00:20:00+09:00,1.9,�k,3.4,�k�k��,17.2,86,0,0,0,0.5,0,0,1002,1015.7
2020-09-28T00:21:00+09:00,2,�k,3.4,�k�k��,17.1,85.7,0,0,0,0.5,0,0,1002,1015.7
2020-09-28T00:22:00+09:00,2.1,�k�k��,3.5,�k�k��,17,86,0,0,0,0.5,0,0,1002,1015.8
2020-09-28T00:23:00+09:00,2.2,�k�k��,3.7,�k�k��,16.9,85.9,0,0,0,0.5,0,0,1002,1015.8
2020-09-28T00:24:00+09:00,2.3,�k�k��,3.7,�k�k��,16.8,86.5,0,0,0,0.5,0,0,1002,1015.8
2020-09-28T00:25:00+09:00,2.3,�k�k��,4.5,�k,16.8,86.8,0,0,0,0.5,0,0,1002,1015.8
2020-09-28T00:26:00+09:00,2.3,�k�k��,4.5,�k,16.7,87.2,0,0,0,0.5,0,0,1002,1015.8
2020-09-28T00:27:00+09:00,2.3,�k�k��,4.5,�k,16.7,87.5,0,0,0,0.5,0,0,1001.9,1015.7
2020-09-28T00:28:00+09:00,2.2,�k�k��,4.5,�k,16.8,88,0,0,0,0.5,0,0,1001.9,1015.7
2020-09-28T00:29:00+09:00,2.2,�k,4.5,�k,16.7,88.2,0,0,0,0.5,0,0,1001.9,1015.7
2020-09-28T00:30:00+09:00,2.1,�k,4.5,�k,16.7,88.4,0,0,0,0.5,0,0,1001.9,1015.7
2020-09-28T00:31:00+09:00,2,�k,4.5,�k,16.7,88.3,0,0,0,0.5,0,0,1001.9,1015.7
2020-09-28T00:32:00+09:00,1.9,�k,4.7,�k,16.8,88.5,0,0,0,0.5,0,0,1001.9,1015.7
2020-09-28T00:33:00+09:00,1.9,�k,4.7,�k,16.8,88.4,0,0,0,0.5,0,0,1001.9,1015.7
2020-09-28T00:34:00+09:00,1.9,�k,4.7,�k,16.9,88.3,0,0,0,0.5,0,0,1001.9,1015.7
2020-09-28T00:35:00+09:00,1.9,�k�k��,4.7,�k,17,88.1,0,0,0,0.5,0,0,1002,1015.8
2020-09-28T00:36:00+09:00,1.9,�k�k��,4.7,�k,17,87.5,0,0,0,0.5,0,0,1002,1015.8
2020-09-28T00:37:00+09:00,1.9,�k�k��,4.7,�k,17,87.1,0,0,0,0.5,0,0,1002,1015.8
2020-09-28T00:38:00+09:00,2,�k�k��,4.7,�k,17.1,86.9,0,0,0,0.5,0,0,1002,1015.7
2020-09-28T00:39:00+09:00,2,�k�k��,4.7,�k,17.1,86.5,0,0,0,0.5,0,0,1002,1015.7
2020-09-28T00:40:00+09:00,2,�k�k��,4.7,�k,17.2,86.2,0,0,0,0.5,0,0,1002,1015.7
2020-09-28T00:41:00+09:00,2,�k�k��,4.7,�k,17.2,85.8,0,0,0,0.5,0,0,1002,1015.7
2020-09-28T00:42:00+09:00,2,�k�k��,4.6,�k��,17.2,85.7,0,0,0,0.5,0,0,1002,1015.7
2020-09-28T00:43:00+09:00,2,�k�k��,4.6,�k��,17.2,85.4,0,0,0,0.5,0,0,1002,1015.7
2020-09-28T00:44:00+09:00,2.1,�k�k��,4.6,�k��,17.3,85.2,0,0,0,0.5,0,0,1002,1015.7
2020-09-28T00:45:00+09:00,2.1,�k�k��,4.6,�k��,17.3,84.8,0,0,0,0.5,0,0,1002,1015.7
2020-09-28T00:46:00+09:00,2.1,�k�k��,4.3,�k��,17.4,84.5,0,0,0,0.5,0,0,1002,1015.7
2020-09-28T00:47:00+09:00,2.1,�k�k��,4.3,�k��,17.3,84.1,0,0,0,0.5,0,0,1002,1015.7
2020-09-28T00:48:00+09:00,2,�k�k��,4.3,�k��,17.3,83.9,0,0,0,0.5,0,0,1002,1015.7
2020-09-28T00:49:00+09:00,2,�k�k��,4.5,�k��,17.6,84.5,0,0,0,0.5,0,0,1002,1015.7
2020-09-28T00:50:00+09:00,2.2,�k�k��,4.5,�k��,17.5,84,0,0,0,0.5,0,0,1002,1015.7
2020-09-28T00:51:00+09:00,2.3,�k,4.5,�k��,17.6,84,0,0,0,0.5,0,0,1002,1015.7
2020-09-28T00:52:00+09:00,2.3,�k,4.5,�k��,17.7,83.9,0,0,0,0.5,0,0,1002,1015.7
2020-09-28T00:53:00+09:00,2.4,�k,4.5,�k��,17.5,83.3,0,0,0,0.5,0,0,1002,1015.7
2020-09-28T00:54:00+09:00,2.3,�k,4.5,�k��,17.5,83.2,0,0,0,0.5,0,0,1002,1015.7
2020-09-28T00:55:00+09:00,2.3,�k,4.5,�k��,17.4,83.6,0,0,0,0.5,0,0,1002,1015.7
2020-09-28T00:56:00+09:00,2.4,�k,4.5,�k��,17.3,83.7,0,0,0,0.5,0,0,1002,1015.7
2020-09-28T00:57:00+09:00,2.5,�k�k��,4.5,�k��,17.4,84.2,0,0,0,0.5,0,0,1002,1015.7
2020-09-28T00:58:00+09:00,2.5,�k�k��,4.5,�k��,17.3,84.4,0,0,0,0.5,0,0,1002,1015.7
2020-09-28T00:59:00+09:00,2.4,�k�k��,4.5,�k�k��,17.2,83.9,0,0,0,0.5,0,0,1002,1015.7
2020-09-28T01:00:00+09:00,2.3,�k�k��,4.3,�k�k��,17.3,84.6,0,0,0,0.5,0,0,1002,1015.7
2020-09-28T01:01:00+09:00,2.3,�k�k��,3.8,�k�k��,17.3,84.8,0,0,0,0.5,0,0,1002,1015.7
2020-09-28T01:02:00+09:00,2.3,�k�k��,3.8,�k�k��,17.2,85,0,0,0,0.5,0,0,1002,1015.7
2020-09-28T01:03:00+09:00,2.3,�k�k��,3.8,�k�k��,17.1,84.9,0,0,0,0.5,0,0,1002,1015.7
2020-09-28T01:04:00+09:00,2.4,�k�k��,3.8,�k�k��,17,85.1,0,0,0,0.5,0,0,1002,1015.8
2020-09-28T01:05:00+09:00,2.4,�k�k��,3.8,�k�k��,17.3,86.2,0,0,0,0.5,0,0,1002,1015.7
2020-09-28T01:06:00+09:00,2.2,�k�k��,3.8,�k�k��,17,85.7,0,0,0,0.5,0,0,1001.9,1015.6
2020-09-28T01:07:00+09:00,2.1,�k�k��,3.8,�k�k��,16.9,85.4,0,0,0,0.5,0,0,1002,1015.8
2020-09-28T01:08:00+09:00,2.2,�k,3.8,�k�k��,16.8,85.8,0,0,0,0.5,0,0,1001.9,1015.7
2020-09-28T01:09:00+09:00,2.1,�k,3.8,�k�k��,16.8,86.2,0,0,0,0.5,0,0,1001.9,1015.7
2020-09-28T01:10:00+09:00,2,�k,3.8,�k�k��,16.8,86.6,0,0,0,0.5,0,0,1001.9,1015.7
2020-09-28T01:11:00+09:00,1.9,�k,3.8,�k�k��,16.8,86.9,0,0,0,0.5,0,0,1001.9,1015.7
2020-09-28T01:12:00+09:00,1.8,�k,3.8,�k�k��,16.8,87.1,0,0,0,0.5,0,0,1001.9,1015.7
2020-09-28T01:13:00+09:00,1.8,�k�k��,3.8,�k�k��,16.8,87.2,0,0,0,0.5,0,0,1001.9,1015.7
2020-09-28T01:14:00+09:00,1.7,�k�k��,3.8,�k�k��,16.9,87.3,0,0,0,0.5,0,0,1001.9,1015.7
2020-09-28T01:15:00+09:00,1.7,�k�k��,3.3,�k��,16.9,87.2,0,0,0,0.5,0,0,1002,1015.8
2020-09-28T01:16:00+09:00,1.8,�k�k��,3.3,�k��,16.9,87.2,0,0,0,0.5,0,0,1002,1015.8
2020-09-28T01:17:00+09:00,1.8,�k�k��,3.3,�k��,16.9,86.9,0,0,0,0.5,0,0,1002,1015.8
2020-09-28T01:18:00+09:00,1.8,�k�k��,3.3,�k��,16.9,87,0,0,0,0.5,0,0,1002,1015.8
2020-09-28T01:19:00+09:00,1.7,�k�k��,3.3,�k��,16.8,87.3,0,0,0,0.5,0,0,1002,1015.8
2020-09-28T01:20:00+09:00,1.7,�k�k��,3.3,�k��,16.7,87.2,0,0,0,0.5,0,0,1002,1015.8
2020-09-28T01:21:00+09:00,1.6,�k�k��,3.3,�k��,16.8,87.6,0,0,0,0.5,0,0,1002,1015.8
2020-09-28T01:22:00+09:00,1.6,�k�k��,3.3,�k��,16.8,87.7,0,0,0,0.5,0,0,1002,1015.8
2020-09-28T01:23:00+09:00,1.4,�k�k��,3.3,�k��,16.9,87.7,0,0,0,0.5,0,0,1002,1015.8
2020-09-28T01:24:00+09:00,1.3,�k,3.3,�k��,16.9,87.6,0,0,0,0.5,0,0,1002,1015.8
2020-09-28T01:25:00+09:00,1.2,�k,3.3,�k��,16.9,87.4,0,0,0,0.5,0,0,1002,1015.8
2020-09-28T01:26:00+09:00,1.1,�k,2.5,�k,16.9,87.4,0,0,0,0.5,0,0,1002,1015.8
2020-09-28T01:27:00+09:00,1.1,�k,2.5,�k,16.9,87.4,0,0,0,0.5,0,0,1002,1015.8
2020-09-28T01:28:00+09:00,1,�k,2.2,�k,16.8,87.2,0,0,0,0.5,0,0,1002,1015.8
2020-09-28T01:29:00+09:00,1,�k�k��,2.2,�k,16.7,86.8,0,0,0,0.5,0,0,1002,1015.8
2020-09-28T01:30:00+09:00,0.9,�k�k��,1.8,�k,16.6,87.2,0,0,0,0.5,0,0,1002,1015.8
2020-09-28T01:31:00+09:00,0.8,�k�k��,1.7,�k��,16.7,87.7,0,0,0,0.5,0,0,1002,1015.8
2020-09-28T01:32:00+09:00,0.8,�k�k��,1.7,�k��,16.6,88.1,0,0,0,0.5,0,0,1002,1015.8
2020-09-28T01:33:00+09:00,0.8,�k�k��,1.7,�k��,16.6,88.3,0,0,0,0.5,0,0,1002,1015.8
2020-09-28T01:34:00+09:00,0.8,�k�k��,1.7,�k��,16.6,88.4,0,0,0,0.5,0,0,1002,1015.8
2020-09-28T01:35:00+09:00,0.8,�k��,1.7,�k��,16.7,88.4,0,0,0,0.5,0,0,1002,1015.8
2020-09-28T01:36:00+09:00,0.7,�k��,1.7,�k��,16.5,88.3,0,0,0,0.5,0,0,1002,1015.8
2020-09-28T01:37:00+09:00,0.6,�k��,1.7,�k��,16.5,88.3,0,0,0,0.5,0,0,1002,1015.8
2020-09-28T01:38:00+09:00,0.6,�k��,1.7,�k��,16.5,88.4,0,0,0,0.5,0,0,1002,1015.8
2020-09-28T01:39:00+09:00,0.7,�k��,2.1,�k�k��,16.7,89.1,0,0,0,0.5,0,0,1002,1015.8
2020-09-28T01:40:00+09:00,0.7,�k��,2.1,�k�k��,16.8,89.3,0,0,0,0.5,0,0,1002,1015.8
2020-09-28T01:41:00+09:00,0.8,�k��,2.1,�k�k��,16.9,88.8,0,0,0,0.5,0,0,1002,1015.8
2020-09-28T01:42:00+09:00,0.8,�k��,2.3,�k�k��,16.9,88.7,0,0,0,0.5,0,0,1002,1015.8
2020-09-28T01:43:00+09:00,0.9,�k��,2.3,�k�k��,16.9,88.1,0,0,0,0.5,0,0,1002,1015.8
2020-09-28T01:44:00+09:00,1,�k��,2.3,�k�k��,16.7,87.5,0,0,0,0.5,0,0,1002,1015.8
2020-09-28T01:45:00+09:00,1,�k��,2.3,�k�k��,16.8,87.8,0,0,0,0.5,0,0,1002,1015.8
2020-09-28T01:46:00+09:00,1.2,�k��,2.3,�k�k��,16.8,87.8,0,0,0,0.5,0,0,1002,1015.8
2020-09-28T01:47:00+09:00,1.3,�k��,2.3,�k�k��,16.9,88.2,0,0,0,0.5,0,0,1002,1015.8
2020-09-28T01:48:00+09:00,1.4,�k��,2.3,�k�k��,16.8,87.7,0,0,0,0.5,0,0,1002,1015.8
2020-09-28T01:49:00+09:00,1.4,�k��,2.4,�k�k��,16.9,87.8,0,0,0,0.5,0,0,1002,1015.8
2020-09-28T01:50:00+09:00,1.4,�k��,2.6,�k�k��,16.9,87.9,0,0,0,0.5,0,0,1002,1015.8
2020-09-28T01:51:00+09:00,1.5,�k��,2.6,�k�k��,17.1,88.1,0,0,0,0.5,0,0,1002,1015.7
2020-09-28T01:52:00+09:00,1.6,�k��,2.6,�k�k��,17.1,87.9,0,0,0,0.5,0,0,1001.9,1015.6
2020-09-28T01:53:00+09:00,1.6,�k��,2.6,�k�k��,17.1,87,0,0,0,0.5,0,0,1001.9,1015.6
2020-09-28T01:54:00+09:00,1.6,�k��,2.6,�k�k��,17,86.8,0,0,0,0.5,0,0,1001.9,1015.6
2020-09-28T01:55:00+09:00,1.6,�k�k��,2.6,�k�k��,17,86.9,0,0,0,0.5,0,0,1001.9,1015.6
2020-09-28T01:56:00+09:00,1.7,�k�k��,2.7,�k,17.1,87,0,0,0,0.5,0,0,1001.9,1015.6
2020-09-28T01:57:00+09:00,1.6,�k�k��,2.7,�k,17.2,87.2,0,0,0,0.5,0,0,1001.9,1015.6
2020-09-28T01:58:00+09:00,1.7,�k�k��,2.7,�k,17.3,87.1,0,0,0,0.5,0,0,1001.9,1015.6
2020-09-28T01:59:00+09:00,1.7,�k�k��,3.1,�k�k��,17.2,86.4,0,0,0,0.5,0,0,1001.9,1015.6
2020-09-28T02:00:00+09:00,1.7,�k�k��,3.1,�k�k��,17.1,86,0,0,0,0.5,0,0,1001.8,1015.5
2020-09-28T02:01:00+09:00,1.7,�k�k��,3.7,�k�k��,17.2,86.3,0,0,0,0.5,0,0,1001.8,1015.5
2020-09-28T02:02:00+09:00,1.8,�k�k��,3.7,�k�k��,17.3,86.6,0,0,0,0.5,0,0,1001.8,1015.5
2020-09-28T02:03:00+09:00,1.9,�k�k��,3.7,�k�k��,17.2,86.3,0,0,0,0.5,0,0,1001.8,1015.5
2020-09-28T02:04:00+09:00,2,�k�k��,3.7,�k�k��,17.3,86.3,0,0,0,0.5,0,0,1001.7,1015.4
2020-09-28T02:05:00+09:00,2.2,�k�k��,3.7,�k�k��,17.4,86.5,0,0,0,0.5,0,0,1001.8,1015.5
2020-09-28T02:06:00+09:00,2.2,�k�k��,3.7,�k�k��,17.3,85.9,0,0,0,0.5,0,0,1001.8,1015.5
2020-09-28T02:07:00+09:00,2.2,�k�k��,3.7,�k�k��,17.3,85.3,0,0,0,0.5,0,0,1001.8,1015.5
2020-09-28T02:08:00+09:00,2.2,�k�k��,3.7,�k�k��,17.2,85.5,0,0,0,0.5,0,0,1001.8,1015.5
2020-09-28T02:09:00+09:00,2.2,�k�k��,3.7,�k�k��,17.2,85.5,0,0,0,0.5,0,0,1001.8,1015.5
2020-09-28T02:10:00+09:00,2.2,�k,3.7,�k�k��,17.1,85.6,0,0,0,0.5,0,0,1001.8,1015.5
2020-09-28T02:11:00+09:00,2.1,�k,3.7,�k�k��,17.2,86.1,0,0,0,0.5,0,0,1001.8,1015.5
2020-09-28T02:12:00+09:00,2.1,�k,3.7,�k�k��,17.2,86.2,0,0,0,0.5,0,0,1001.8,1015.5
2020-09-28T02:13:00+09:00,2,�k�k��,3.7,�k�k��,17.2,86.1,0,0,0,0.5,0,0,1001.8,1015.5
2020-09-28T02:14:00+09:00,2,�k�k��,3.7,�k�k��,17.2,85.9,0,0,0,0.5,0,0,1001.8,1015.5
2020-09-28T02:15:00+09:00,2,�k�k��,3.8,�k��,17.3,85.8,0,0,0,0.5,0,0,1001.8,1015.5
2020-09-28T02:16:00+09:00,2,�k�k��,3.8,�k��,17.4,85.6,0,0,0,0.5,0,0,1001.8,1015.5
2020-09-28T02:17:00+09:00,2,�k�k��,3.8,�k��,17.5,85.3,0,0,0,0.5,0,0,1001.8,1015.5
2020-09-28T02:18:00+09:00,2,�k��,3.8,�k��,17.5,84.7,0,0,0,0.5,0,0,1001.8,1015.5
2020-09-28T02:19:00+09:00,2,�k�k��,3.8,�k��,17.5,84.4,0,0,0,0.5,0,0,1001.7,1015.4
2020-09-28T02:20:00+09:00,1.9,�k�k��,3.8,�k��,17.6,84.5,0,0,0,0.5,0,0,1001.8,1015.5
2020-09-28T02:21:00+09:00,1.9,�k�k��,3.8,�k��,17.5,84.4,0,0,0,0.5,0,0,1001.7,1015.4
2020-09-28T02:22:00+09:00,1.9,�k�k��,3.8,�k��,17.5,84.9,0,0,0,0.5,0,0,1001.7,1015.4
2020-09-28T02:23:00+09:00,1.8,�k,3.8,�k��,17.4,84.9,0,0,0,0.5,0,0,1001.7,1015.4
2020-09-28T02:24:00+09:00,1.7,�k,3.8,�k��,17.3,84.9,0,0,0,0.5,0,0,1001.7,1015.4
2020-09-28T02:25:00+09:00,1.6,�k,3.6,�k�k��,17.3,85.3,0,0,0,0.5,0,0,1001.7,1015.4
2020-09-28T02:26:00+09:00,1.5,�k,3.6,�k�k��,17.3,85.6,0,0,0,0.5,0,0,1001.7,1015.4
2020-09-28T02:27:00+09:00,1.5,�k,3.6,�k�k��,17.3,85.8,0,0,0,0.5,0,0,1001.7,1015.4
2020-09-28T02:28:00+09:00,1.6,�k,3.6,�k�k��,17.2,85.9,0,0,0,0.5,0,0,1001.7,1015.4
2020-09-28T02:29:00+09:00,1.5,�k,3.3,�k�k��,17.3,86,0,0,0,0.5,0,0,1001.7,1015.4
2020-09-28T02:30:00+09:00,1.4,�k,3,�k�k��,17.3,86,0,0,0,0.5,0,0,1001.7,1015.4
2020-09-28T02:31:00+09:00,1.3,�k,3,�k�k��,17.3,86,0,0,0,0.5,0,0,1001.7,1015.4
2020-09-28T02:32:00+09:00,1.2,�k,3,�k�k��,17.5,86.4,0,0,0,0.5,0,0,1001.7,1015.4
2020-09-28T02:33:00+09:00,1.2,�k,3,�k�k��,17.4,85.6,0,0,0,0.5,0,0,1001.7,1015.4
2020-09-28T02:34:00+09:00,1.2,�k,3,�k�k��,17.4,85.6,0,0,0,0.5,0,0,1001.7,1015.4
2020-09-28T02:35:00+09:00,1.1,�k,3,�k�k��,17.3,85.7,0,0,0,0.5,0,0,1001.6,1015.3
2020-09-28T02:36:00+09:00,1.1,�k,3.6,�k,17.4,85.8,0,0,0,0.5,0,0,1001.6,1015.3
2020-09-28T02:37:00+09:00,1.1,�k,3.6,�k,17.4,85.6,0,0,0,0.5,0,0,1001.7,1015.4
2020-09-28T02:38:00+09:00,1,�k,3.6,�k,17.3,85.1,0,0,0,0.5,0,0,1001.6,1015.3
2020-09-28T02:39:00+09:00,1.1,�k,3.6,�k,17.5,85.1,0,0,0,0.5,0,0,1001.6,1015.3
2020-09-28T02:40:00+09:00,1.3,�k�k��,3.7,�k��,17.4,84.6,0,0,0,0.5,0,0,1001.7,1015.4
2020-09-28T02:41:00+09:00,1.6,�k�k��,4.2,���k��,17.5,84.2,0,0,0,0.5,0,0,1001.7,1015.4
2020-09-28T02:42:00+09:00,1.8,�k�k��,4.8,�k��,17.7,83.5,0,0,0,0.5,0,0,1001.7,1015.4
2020-09-28T02:43:00+09:00,2.1,�k�k��,5.2,�k��,17.7,82.6,0,0,0,0.5,0,0,1001.6,1015.3
2020-09-28T02:44:00+09:00,2.4,�k��,6.6,�k��,17.7,81.9,0,0,0,0.5,0,0,1001.6,1015.3
2020-09-28T02:45:00+09:00,2.9,�k��,7.4,�k��,17.9,81.4,0,0,0,0.5,0,0,1001.6,1015.3
2020-09-28T02:46:00+09:00,3.3,�k��,7.4,�k��,18.1,80.4,0,0,0,0.5,0,0,1001.6,1015.3
2020-09-28T02:47:00+09:00,3.5,�k��,7.4,�k��,18.1,79.3,0,0,0,0.5,0,0,1001.7,1015.4
2020-09-28T02:48:00+09:00,3.7,�k��,7.4,�k��,18.2,78.6,0,0,0,0.5,0,0,1001.7,1015.4
2020-09-28T02:49:00+09:00,3.8,�k��,7.4,�k��,18.2,78.3,0,0,0,0.5,0,0,1001.7,1015.4
2020-09-28T02:50:00+09:00,3.9,�k��,7.4,�k��,18.2,78.2,0,0,0,0.5,0,0,1001.7,1015.4
2020-09-28T02:51:00+09:00,4.1,�k��,7.4,�k��,18.2,78.1,0,0,0,0.5,0,0,1001.7,1015.4
2020-09-28T02:52:00+09:00,4.2,�k��,7.5,�k��,18.2,78,0,0,0,0.5,0,0,1001.7,1015.4
2020-09-28T02:53:00+09:00,4.2,�k��,7.5,�k��,18.2,77.7,0,0,0,0.5,0,0,1001.7,1015.4
2020-09-28T02:54:00+09:00,4.2,�k��,7.5,�k��,18.2,77.7,0,0,0,0.5,0,0,1001.7,1015.4
2020-09-28T02:55:00+09:00,4,�k��,7.5,�k��,18.2,77.9,0,0,0,0.5,0,0,1001.7,1015.4
2020-09-28T02:56:00+09:00,3.9,�k��,7.5,�k��,18.2,77.9,0,0,0,0.5,0,0,1001.7,1015.4
2020-09-28T02:57:00+09:00,3.8,�k��,7.5,�k��,18.1,78,0,0,0,0.5,0,0,1001.7,1015.4
2020-09-28T02:58:00+09:00,3.8,�k��,7.5,�k��,18.1,78.1,0,0,0,0.5,0,0,1001.7,1015.4
2020-09-28T02:59:00+09:00,3.9,�k��,7.5,�k��,18,78.4,0,0,0,0.5,0,0,1001.7,1015.4
2020-09-28T03:00:00+09:00,3.8,�k��,7.5,�k��,18,78.8,0,0,0,0.5,0,0,1001.7,1015.4
2020-09-28T03:01:00+09:00,3.5,�k��,7.5,�k��,18,79,0,0,0,0.5,0,0,1001.7,1015.4
2020-09-28T03:02:00+09:00,3.1,�k��,7.1,���k��,18.1,79,0,0,0,0.5,0,0,1001.7,1015.4
2020-09-28T03:03:00+09:00,3,�k��,7.1,���k��,18.1,78.8,0,0,0,0.5,0,0,1001.7,1015.4
2020-09-28T03:04:00+09:00,3,�k��,7.1,���k��,18.2,78.6,0,0,0,0.5,0,0,1001.7,1015.4
2020-09-28T03:05:00+09:00,2.9,�k��,5.3,�k��,18.2,78.4,0,0,0,0.5,0,0,1001.7,1015.4
2020-09-28T03:06:00+09:00,2.8,�k��,5,�k��,18.2,78.1,0,0,0,0.5,0,0,1001.7,1015.4
2020-09-28T03:07:00+09:00,2.6,�k��,4.8,�k��,18.2,78.1,0,0,0,0.5,0,0,1001.8,1015.5
2020-09-28T03:08:00+09:00,2.5,�k��,4.8,�k��,18.1,78.1,0,0,0,0.5,0,0,1001.8,1015.5
2020-09-28T03:09:00+09:00,2.3,�k�k��,4.6,�k��,18.1,78.5,0,0,0,0.5,0,0,1001.8,1015.5
2020-09-28T03:10:00+09:00,2.3,�k�k��,4.6,�k��,18.2,78.9,0,0,0,0.5,0,0,1001.8,1015.5
2020-09-28T03:11:00+09:00,2.3,�k�k��,4.6,�k��,18.1,78.9,0,0,0,0.5,0,0,1001.8,1015.5
2020-09-28T03:12:00+09:00,2.2,�k�k��,4.6,�k��,18.1,79.2,0,0,0,0.5,0,0,1001.8,1015.5
2020-09-28T03:13:00+09:00,2.1,�k,4.6,�k��,17.9,79.6,0,0,0,0.5,0,0,1001.8,1015.5
2020-09-28T03:14:00+09:00,2,�k,4.6,�k��,17.8,80.4,0,0,0,0.5,0,0,1001.8,1015.5
2020-09-28T03:15:00+09:00,1.8,�k,4.2,�k��,17.8,81.4,0,0,0,0.5,0,0,1001.8,1015.5
2020-09-28T03:16:00+09:00,1.7,�k�k��,3.3,�k�k��,17.7,82,0,0,0,0.5,0,0,1001.8,1015.5
2020-09-28T03:17:00+09:00,1.7,�k�k��,3.3,�k�k��,17.7,82.7,0,0,0,0.5,0,0,1001.8,1015.5
2020-09-28T03:18:00+09:00,1.6,�k�k��,3.3,�k�k��,17.7,83,0,0,0,0.5,0,0,1001.8,1015.5
2020-09-28T03:19:00+09:00,1.6,�k�k��,3.3,�k�k��,17.7,83.1,0,0,0,0.5,0,0,1001.8,1015.5
2020-09-28T03:20:00+09:00,1.6,�k�k��,3,�k�k��,17.7,83.4,0,0,0,0.5,0,0,1001.7,1015.4
2020-09-28T03:21:00+09:00,1.6,�k�k��,3,�k�k��,17.8,83.4,0,0,0,0.5,0,0,1001.8,1015.5
2020-09-28T03:22:00+09:00,1.6,�k�k��,3,�k�k��,17.8,83.4,0,0,0,0.5,0,0,1001.8,1015.5
2020-09-28T03:23:00+09:00,1.6,�k�k��,3,�k�k��,17.8,83.2,0,0,0,0.5,0,0,1001.8,1015.5
2020-09-28T03:24:00+09:00,1.6,�k�k��,3,�k�k��,17.7,83.3,0,0,0,0.5,0,0,1001.8,1015.5
2020-09-28T03:25:00+09:00,1.6,�k�k��,3,�k�k��,17.7,83.3,0,0,0,0.5,0,0,1001.8,1015.5
2020-09-28T03:26:00+09:00,1.6,�k�k��,3,�k�k��,17.6,83.8,0,0,0,0.5,0,0,1001.8,1015.5
2020-09-28T03:27:00+09:00,1.6,�k�k��,3,�k�k��,17.6,83.9,0,0,0,0.5,0,0,1001.8,1015.5
2020-09-28T03:28:00+09:00,1.6,�k�k��,2.9,�k�k��,17.6,83.9,0,0,0,0.5,0,0,1001.8,1015.5
2020-09-28T03:29:00+09:00,1.6,�k�k��,2.7,�k,17.7,84.5,0,0,0,0.5,0,0,1001.8,1015.5
2020-09-28T03:30:00+09:00,1.7,�k�k��,2.7,�k,17.8,84.9,0,0,0,0.5,0,0,1001.8,1015.5
2020-09-28T03:31:00+09:00,1.7,�k�k��,2.5,�k��,17.7,84.3,0,0,0,0.5,0,0,1001.8,1015.5
2020-09-28T03:32:00+09:00,1.7,�k�k��,2.6,�k,17.5,83.7,0,0,0,0.5,0,0,1001.8,1015.5
2020-09-28T03:33:00+09:00,1.7,�k�k��,2.9,�k�k��,17.4,84.1,0,0,0,0.5,0,0,1001.8,1015.5
2020-09-28T03:34:00+09:00,1.8,�k�k��,3.1,�k�k��,17.4,84.6,0,0,0,0.5,0,0,1001.8,1015.5
2020-09-28T03:35:00+09:00,1.8,�k�k��,3.1,�k�k��,17.5,85,0,0,0,0.5,0,0,1001.8,1015.5
2020-09-28T03:36:00+09:00,1.8,�k�k��,3.1,�k�k��,17.5,84.8,0,0,0,0.5,0,0,1001.8,1015.5
2020-09-28T03:37:00+09:00,1.8,�k�k��,3.2,�k�k��,17.6,85,0,0,0,0.5,0,0,1001.8,1015.5
2020-09-28T03:38:00+09:00,1.7,�k�k��,3.7,�k,17.5,84.9,0,0,0,0.5,0,0,1001.8,1015.5
2020-09-28T03:39:00+09:00,1.7,�k�k��,3.7,�k,17.5,84.7,0,0,0,0.5,0,0,1001.8,1015.5
2020-09-28T03:40:00+09:00,1.6,�k,3.7,�k,17.6,84.8,0,0,0,0.5,0,0,1001.8,1015.5
2020-09-28T03:41:00+09:00,1.6,�k,3.7,�k,17.6,84.8,0,0,0,0,0,0,1001.8,1015.5
2020-09-28T03:42:00+09:00,1.5,�k,3.7,�k,17.5,84.4,0,0,0,0,0,0,1001.8,1015.5
2020-09-28T03:43:00+09:00,1.5,�k,3.7,�k,17.5,84.6,0,0,0,0,0,0,1001.8,1015.5
2020-09-28T03:44:00+09:00,1.4,�k�k��,3.7,�k,17.5,84.9,0,0,0,0,0,0,1001.8,1015.5
2020-09-28T03:45:00+09:00,1.4,�k�k��,3.7,�k,17.6,84.9,0,0,0,0,0,0,1001.8,1015.5
2020-09-28T03:46:00+09:00,1.5,�k�k��,3.7,�k,17.6,84.9,0,0,0,0,0,0,1001.8,1015.5
2020-09-28T03:47:00+09:00,1.4,�k�k��,3.7,�k,17.6,84.9,0,0,0,0,0,0,1001.8,1015.5
2020-09-28T03:48:00+09:00,1.4,�k�k��,3.6,�k�k��,17.5,84.6,0,0,0,0,0,0,1001.8,1015.5
2020-09-28T03:49:00+09:00,1.3,�k�k��,2.8,�k�k��,17.6,84.9,0,0,0,0,0,0,1001.9,1015.6
2020-09-28T03:50:00+09:00,1.4,�k�k��,2.8,�k�k��,17.6,84.8,0,0,0,0,0,0,1001.9,1015.6
2020-09-28T03:51:00+09:00,1.4,�k�k��,2.8,�k�k��,17.5,84.7,0,0,0,0,0,0,1001.8,1015.5
2020-09-28T03:52:00+09:00,1.5,�k�k��,3.1,�k��,17.5,84.6,0,0,0,0,0,0,1001.8,1015.5
2020-09-28T03:53:00+09:00,1.5,�k�k��,3.1,�k��,17.5,84.6,0,0,0,0,0,0,1001.8,1015.5
2020-09-28T03:54:00+09:00,1.6,�k�k��,3.1,�k��,17.6,84.8,0,0,0,0,0,0,1001.8,1015.5
2020-09-28T03:55:00+09:00,1.6,�k�k��,3.1,�k��,17.6,84.7,0,0,0,0,0,0,1001.8,1015.5
2020-09-28T03:56:00+09:00,1.7,�k�k��,3.1,�k��,17.5,84.5,0,0,0,0,0,0,1001.8,1015.5
2020-09-28T03:57:00+09:00,1.8,�k�k��,3.1,�k��,17.5,84.4,0,0,0,0,0,0,1001.9,1015.6
2020-09-28T03:58:00+09:00,1.9,�k��,3.1,�k��,17.6,84.7,0,0,0,0,0,0,1001.9,1015.6
2020-09-28T03:59:00+09:00,2,�k��,3.1,�k��,17.5,84.3,0,0,0,0,0,0,1001.9,1015.6
2020-09-28T04:00:00+09:00,2,�k��,3.1,�k��,17.5,84.1,0,0,0,0,0,0,1001.9,1015.6
2020-09-28T04:01:00+09:00,1.9,�k��,3.1,�k��,17.6,83.9,0,0,0,0,0,0,1001.9,1015.6
2020-09-28T04:02:00+09:00,1.9,�k��,3.2,�k,17.6,83.5,0,0,0,0,0,0,1001.9,1015.6
2020-09-28T04:03:00+09:00,1.8,�k�k��,3.2,�k,17.6,83.4,0,0,0,0,0,0,1001.9,1015.6
2020-09-28T04:04:00+09:00,1.7,�k�k��,3.2,�k,17.6,83.3,0,0,0,0,0,0,1001.8,1015.5
2020-09-28T04:05:00+09:00,1.6,�k�k��,3.2,�k,17.6,83.3,0,0,0,0,0,0,1001.8,1015.5
2020-09-28T04:06:00+09:00,1.5,�k�k��,3.2,�k,17.6,83.1,0,0,0,0,0,0,1001.8,1015.5
2020-09-28T04:07:00+09:00,1.4,�k�k��,3.2,�k,17.5,83.3,0,0,0,0,0,0,1001.8,1015.5
2020-09-28T04:08:00+09:00,1.3,�k�k��,3.2,�k,17.5,83.6,0,0,0,0,0,0,1001.8,1015.5
2020-09-28T04:09:00+09:00,1.2,�k,3.2,�k,17.6,83.8,0,0,0,0,0,0,1001.8,1015.5
2020-09-28T04:10:00+09:00,1.1,�k,3.2,�k,17.4,83.7,0,0,0,0,0,0,1001.9,1015.6
2020-09-28T04:11:00+09:00,1.2,�k,3.8,�k�k��,17.4,83.9,0,0,0,0,0,0,1001.8,1015.5
2020-09-28T04:12:00+09:00,1.3,�k,3.8,�k�k��,17.3,84,0,0,0,0,0,0,1001.8,1015.5
2020-09-28T04:13:00+09:00,1.4,�k�k��,3.8,�k�k��,17.2,84.2,0,0,0,0,0,0,1001.8,1015.5
2020-09-28T04:14:00+09:00,1.5,�k�k��,3.8,�k�k��,17.2,84.6,0,0,0,0,0,0,1001.8,1015.5
2020-09-28T04:15:00+09:00,1.7,�k�k��,3.8,�k�k��,17.2,85.1,0,0,0,0,0,0,1001.9,1015.6
2020-09-28T04:16:00+09:00,1.8,�k�k��,3.8,�k�k��,17.3,85.1,0,0,0,0,0,0,1001.9,1015.6
2020-09-28T04:17:00+09:00,2,�k�k��,3.8,�k�k��,17.3,84.9,0,0,0,0,0,0,1001.9,1015.6
2020-09-28T04:18:00+09:00,2.1,�k�k��,3.8,�k�k��,17.3,84.5,0,0,0,0,0,0,1001.9,1015.6
2020-09-28T04:19:00+09:00,2.2,�k�k��,3.9,�k��,17.3,84.3,0,0,0,0,0,0,1001.9,1015.6
2020-09-28T04:20:00+09:00,2.2,�k��,3.9,�k��,17.4,84.2,0,0,0,0,0,0,1001.9,1015.6
2020-09-28T04:21:00+09:00,2.3,�k��,3.9,�k��,17.3,83.9,0,0,0,0,0,0,1001.9,1015.6
2020-09-28T04:22:00+09:00,2.3,�k�k��,3.9,�k��,17.4,84.3,0,0,0,0,0,0,1001.9,1015.6
2020-09-28T04:23:00+09:00,2.3,�k�k��,4.6,�k,17.4,84,0,0,0,0,0,0,1001.8,1015.5
2020-09-28T04:24:00+09:00,2.4,�k�k��,5.6,�k�k��,17.4,83.8,0,0,0,0,0,0,1001.8,1015.5
2020-09-28T04:25:00+09:00,2.5,�k�k��,5.8,�k�k��,17.5,83.9,0,0,0,0,0,0,1001.9,1015.6
2020-09-28T04:26:00+09:00,2.5,�k�k��,5.8,�k�k��,17.5,83.4,0,0,0,0,0,0,1001.9,1015.6
2020-09-28T04:27:00+09:00,2.3,�k�k��,5.8,�k�k��,17.4,83,0,0,0,0,0,0,1001.9,1015.6
2020-09-28T04:28:00+09:00,2.2,�k,5.8,�k�k��,17.4,83.1,0,0,0,0,0,0,1002,1015.7
2020-09-28T04:29:00+09:00,2.1,�k,5.8,�k�k��,17.3,83.2,0,0,0,0,0,0,1002,1015.7
2020-09-28T04:30:00+09:00,2.1,�k,5.8,�k�k��,17.3,83.6,0,0,0,0,0,0,1001.9,1015.6
2020-09-28T04:31:00+09:00,2.1,�k,5.8,�k�k��,17.3,83.7,0,0,0,0,0,0,1001.9,1015.6
2020-09-28T04:32:00+09:00,2.1,�k,5.8,�k�k��,17.3,83.7,0,0,0,0,0,0,1001.9,1015.6
2020-09-28T04:33:00+09:00,2,�k,5.8,�k�k��,17.3,83.5,0,0,0,0,0,0,1001.9,1015.6
2020-09-28T04:34:00+09:00,1.8,�k�k��,5.8,�k�k��,17.3,83.6,0,0,0,0,0,0,1001.9,1015.6
2020-09-28T04:35:00+09:00,1.6,�k�k��,4.2,�k,17.3,83.6,0,0,0,0,0,0,1001.9,1015.6
2020-09-28T04:36:00+09:00,1.6,�k�k��,4.2,�k,17.3,83.8,0,0,0,0,0,0,1001.9,1015.6
2020-09-28T04:37:00+09:00,1.8,�k�k��,4.2,�k,17.3,83.8,0,0,0,0,0,0,1001.9,1015.6
2020-09-28T04:38:00+09:00,1.8,�k�k��,4.2,�k,17.3,83.7,0,0,0,0,0,0,1001.9,1015.6
2020-09-28T04:39:00+09:00,1.8,�k�k��,4.2,�k,17.3,83.7,0,0,0,0,0,0,1001.9,1015.6
2020-09-28T04:40:00+09:00,1.9,�k�k��,4.2,�k,17.3,83.7,0,0,0,0,0,0,1001.9,1015.6
2020-09-28T04:41:00+09:00,1.9,�k�k��,4.3,�k��,17.3,83.6,0,0,0,0,0,0,1001.9,1015.6
2020-09-28T04:42:00+09:00,1.9,�k�k��,4.3,�k��,17.3,83.6,0,0,0,0,0,0,1002,1015.7
2020-09-28T04:43:00+09:00,1.9,�k�k��,4.3,�k��,17.3,83.6,0,0,0,0,0,0,1002,1015.7
2020-09-28T04:44:00+09:00,2,�k�k��,4.3,�k��,17.3,83.3,0,0,0,0,0,0,1002,1015.7
2020-09-28T04:45:00+09:00,1.9,�k�k��,4.3,�k��,17.3,83.3,0,0,0,0,0,0,1002,1015.7
2020-09-28T04:46:00+09:00,2,�k�k��,5.1,�k�k��,17.4,83.4,0,0,0,0,0,0,1002,1015.7
2020-09-28T04:47:00+09:00,2.1,�k�k��,5.1,�k�k��,17.4,83.2,0,0,0,0,0,0,1002,1015.7
2020-09-28T04:48:00+09:00,2.3,�k�k��,5.9,�k,17.4,83.3,0,0,0,0,0,0,1002,1015.7
2020-09-28T04:49:00+09:00,2.5,�k�k��,5.9,�k,17.5,83.3,0,0,0,0,0,0,1002,1015.7
2020-09-28T04:50:00+09:00,2.5,�k,5.9,�k,17.4,82.7,0,0,0,0,0,0,1002,1015.7
2020-09-28T04:51:00+09:00,2.5,�k,5.9,�k,17.3,82.6,0,0,0,0,0,0,1002,1015.7